Location: Beaurecueil
(43.5122°N, 5.5450°E)
Time: 20:39:26
(UTC+00:00)

USA 116 - Pass Details

Date: 18 September 2020
Orbit: 405 x 834 km, 97.9° (Epoch: 18 November)

Event Time Altitude Azimuth Distance (km) Brightness Sun altitude
Rises 18:18:32 0° 15° (NNE) 2,443 7.0 -7.4°
Reaches altitude 10° 18:20:28 10° 18° (NNE) 1,609 6.0 -7.8°
Maximum altitude 18:23:54 70° 103° (ESE) 526 3.4 -8.4°
Drops below altitude 10° 18:27:42 10° 187° (S) 1,784 6.3 -9.1°
Sets 18:29:56 0° 190° (S) 2,742 7.3 -9.5°
